CW0230 Weather Reports


time (UTC)temp
F
wind
direction
speed
knots
gust
knots
rain 1hr
in
rain 24hr
in
rain mn
in
humidity
%
barometer
mb
20260508044005 51 44 0.9 2.6 0.00 0.01 0.01 91 1014.3
20260508043504 51 62 0.9 4.3 0.00 0.01 0.01 91 1014.3
20260508042504 51 47 1.7 4.3 0.00 0.01 0.01 91 1014.3
20260508040504 51 19 0.9 2.6 0.00 0.01 0.01 91 1014.4
20260508035004 51 32 0.0 2.6 0.01 0.01 0.01 90 1014.5
20260508033005 51 355 1.7 2.6 0.01 0.01 0.01 90 1014.4
20260508032504 51 35 0.9 4.3 0.01 0.01 0.01 90 1014.5
20260508031504 51 64 0.9 4.3 0.01 0.01 0.01 90 1014.6
20260508031004 51 127 0.9 2.6 0.01 0.01 0.01 89 1014.7
20260508030504 51 50 0.0 2.6 0.01 0.01 0.01 89 1014.6
20260508025004 51 95 1.7 4.3 0.00 0.00 0.00 88 1014.7
20260508023504 51 140 1.7 5.2 0.00 0.00 0.00 87 1014.8
20260508021004 52 82 1.7 4.3 0.00 0.00 0.00 87 1014.7
20260508020504 52 113 0.9 2.6 0.00 0.00 0.00 87 1014.8
20260508020004 52 136 1.7 2.6 0.00 0.00 0.00 86 1014.8
20260508015006 52 142 1.7 5.2 0.00 0.00 0.00 85 1014.9
20260508014505 52 140 0.9 6.1 0.00 0.00 0.00 84 1014.9
20260508014004 52 148 2.6 6.1 0.00 0.00 0.00 84 1015.0
20260508013504 52 142 1.7 7.0 0.00 0.00 0.00 83 1014.9
20260508011505 53 87 0.9 4.3 0.00 0.00 0.00 82 1015.0
20260508011005 53 127 1.7 5.2 0.00 0.00 0.00 82 1015.0
20260508010504 53 133 2.6 5.2 0.00 0.00 0.00 81 1015.0
20260508004504 53 110 1.7 4.3 0.00 0.00 0.00 81 1015.0
20260508003505 53 144 1.7 5.2 0.00 0.00 0.00 81 1015.0
20260508003006 53 158 1.7 6.1 0.00 0.00 0.00 81 1015.1
20260508002504 53 118 2.6 6.1 0.00 0.00 0.00 82 1015.1
20260508000504 53 132 2.6 6.1 0.00 0.00 0.00 82 1015.2
20260508000005 53 159 2.6 5.2 0.00 0.00 0.00 82 1015.2
20260507235504 53 158 2.6 5.2 0.00 0.00 0.00 83 1015.2
20260507225005 54 114 2.6 6.1 0.00 0.00 0.00 80 1015.1
20260507224004 54 115 2.6 7.0 0.00 0.00 0.00 79 1015.3
20260507223005 54 123 2.6 7.0 0.00 0.00 0.00 78 1015.2
20260507222505 54 142 2.6 7.0 0.00 0.00 0.00 77 1015.3
20260507222004 54 128 2.6 7.8 0.00 0.00 0.00 76 1015.3
20260507221504 54 113 2.6 7.8 0.00 0.00 0.00 75 1015.3
20260507220505 54 121 1.7 5.2 0.00 0.00 0.00 73 1015.4
20260507215505 55 131 3.5 6.1 0.00 0.00 0.00 71 1015.4
20260507213005 55 139 3.5 7.0 0.00 0.00 0.00 68 1015.4
20260507212504 55 119 1.7 7.0 0.00 0.00 0.00 67 1015.5
20260507212005 55 131 1.7 6.1 0.00 0.00 0.00 65 1015.4
20260507211505 55 126 3.5 7.0 0.00 0.00 0.00 64 1015.4
20260507205005 56 104 2.6 7.0 0.00 0.00 0.00 59 1015.2
20260507202005 56 136 1.7 2.6 0.00 0.00 0.00 58 1015.0
20260507200006 57 80 1.7 4.3 0.00 0.00 0.00 56 1014.8
20260507195004 57 87 0.9 2.6 0.00 0.00 0.00 56 1014.7
20260507194005 57 128 1.7 2.6 0.00 0.00 0.00 56 1014.6
20260507193504 57 128 0.0 2.6 0.00 0.00 0.00 57 1014.5
20260507192505 57 136 0.9 2.6 0.00 0.00 0.00 55 1014.6
20260507191004 57 114 1.7 4.3 0.00 0.00 0.00 54 1014.6
20260507190504 57 128 1.7 5.2 0.00 0.00 0.00 55 1014.6
20260507185504 58 173 2.6 6.1 0.00 0.00 0.00 58 1014.6
20260507184004 58 147 3.5 6.1 0.00 0.00 0.00 57 1014.6
20260507182504 58 158 2.6 7.0 0.00 0.00 0.00 58 1014.5
20260507181504 59 146 2.6 7.0 0.00 0.00 0.00 57 1014.5
20260507180005 59 147 2.6 7.0 0.00 0.00 0.00 55 1014.4
20260507175005 59 149 4.3 7.0 0.00 0.00 0.00 54 1014.3
20260507174504 59 156 4.3 7.0 0.00 0.00 0.00 55 1014.4
20260507174004 60 168 3.5 7.0 0.00 0.00 0.00 54 1014.4
20260507173505 60 171 3.5 7.8 0.00 0.00 0.00 53 1014.4
20260507172504 60 142 5.2 8.7 0.00 0.00 0.00 51 1014.4
20260507172005 61 135 5.2 8.7 0.00 0.00 0.00 51 1014.4
20260507170505 61 197 2.6 7.8 0.00 0.00 0.00 53 1014.3
20260507165504 61 165 2.6 10.4 0.00 0.00 0.00 53 1014.4
20260507165005 61 155 5.2 10.4 0.00 0.00 0.00 54 1014.4
20260507164504 61 153 4.3 7.8 0.00 0.00 0.00 53 1014.3
20260507164005 61 164 4.3 8.7 0.00 0.00 0.00 54 1014.4
20260507163504 61 149 4.3 10.4 0.00 0.00 0.00 54 1014.4
20260507155504 61 135 5.2 10.4 0.00 0.00 0.00 55 1014.5
20260507155005 61 115 5.2 10.4 0.00 0.00 0.00 55 1014.5
20260507154504 61 137 4.3 10.4 0.00 0.00 0.00 55 1014.4
20260507152504 63 159 6.1 12.2 0.00 0.00 0.00 53 1014.5
20260507152004 63 158 5.2 12.2 0.00 0.00 0.00 52 1014.6
20260507151005 63 165 6.1 12.2 0.00 0.00 0.00 54 1014.6
20260507150505 63 139 5.2 11.3 0.00 0.00 0.00 55 1014.6
20260507144504 61 155 5.2 10.4 0.00 0.00 0.00 57 1014.8
20260507143504 61 149 5.2 13.9 0.00 0.00 0.00 57 1014.8
20260507142505 60 145 5.2 10.4 0.00 0.00 0.00 58 1014.9
20260507142004 61 149 5.2 11.3 0.00 0.00 0.00 57 1015.0
20260507141004 62 153 6.1 12.2 0.00 0.00 0.00 55 1015.0
20260507135505 63 145 8.7 13.9 0.00 0.00 0.00 54 1015.0
20260507135004 64 157 6.1 10.4 0.00 0.00 0.00 54 1015.0
20260507134005 64 146 5.2 14.8 0.00 0.00 0.00 52 1014.9
20260507133504 64 142 6.1 14.8 0.00 0.00 0.00 54 1014.9
20260507132504 64 173 6.1 11.3 0.00 0.00 0.00 54 1015.0
20260507132004 64 154 6.1 12.2 0.00 0.00 0.00 56 1015.0
20260507130505 63 194 7.0 11.3 0.00 0.00 0.00 57 1015.1
20260507130005 62 182 5.2 10.4 0.00 0.00 0.00 59 1015.0
20260507125505 62 191 5.2 14.8 0.00 0.00 0.00 57 1015.1
20260507124504 62 166 5.2 13.0 0.00 0.00 0.00 58 1015.1
20260507123505 61 143 5.2 8.7 0.00 0.00 0.00 57 1015.1
20260507123005 62 167 4.3 8.7 0.00 0.00 0.00 56 1015.1
20260507122504 62 197 4.3 8.7 0.00 0.00 0.00 56 1015.1
20260507122005 62 144 5.2 8.7 0.00 0.00 0.00 55 1015.2
20260507121505 62 170 4.3 8.7 0.00 0.00 0.00 55 1015.2
20260507121005 63 176 5.2 12.2 0.00 0.00 0.00 54 1015.2
20260507120504 63 157 5.2 12.2 0.00 0.00 0.00 55 1015.3
20260507120006 63 152 4.3 11.3 0.00 0.00 0.00 57 1015.3
20260507115505 63 207 5.2 11.3 0.00 0.00 0.00 57 1015.3
20260507115005 63 143 7.8 11.3 0.00 0.00 0.00 54 1015.3
20260507114004 63 181 7.0 11.3 0.00 0.00 0.00 55 1015.3
20260507113505 62 168 6.1 11.3 0.00 0.00 0.00 56 1015.3
20260507112504 62 155 7.0 10.4 0.00 0.00 0.00 55 1015.3
20260507110504 62 159 5.2 10.4 0.00 0.00 0.00 60 1015.4
20260507110005 61 178 5.2 10.4 0.00 0.00 0.00 59 1015.5
20260507105005 61 205 4.3 10.4 0.00 0.00 0.00 59 1015.5
20260507104505 60 189 4.3 10.4 0.00 0.00 0.00 61 1015.5
20260507103504 59 186 5.2 10.4 0.00 0.00 0.00 60 1015.5
20260507103005 59 178 6.1 11.3 0.00 0.00 0.00 59 1015.4
20260507102505 59 165 6.1 11.3 0.00 0.00 0.00 60 1015.4
20260507101504 60 148 6.1 10.4 0.00 0.00 0.00 56 1015.4
20260507100005 62 158 6.1 13.0 0.00 0.00 0.00 58 1015.5
20260507095004 62 150 4.3 10.4 0.00 0.00 0.00 61 1015.4
20260507094505 61 173 5.2 10.4 0.00 0.00 0.00 63 1015.4
20260507092504 59 147 6.1 11.3 0.00 0.00 0.00 65 1015.5
20260507092004 59 134 5.2 11.3 0.00 0.00 0.00 69 1015.4
20260507091504 59 179 5.2 11.3 0.00 0.00 0.00 69 1015.4
20260507091004 58 170 4.3 10.4 0.00 0.00 0.00 70 1015.5
20260507090504 58 151 4.3 10.4 0.00 0.00 0.00 70 1015.5
20260507085504 58 144 4.3 7.8 0.00 0.00 0.00 71 1015.6
20260507084005 57 152 2.6 7.8 0.00 0.00 0.00 74 1015.6
20260507082505 55 132 2.6 7.0 0.00 0.00 0.00 77 1015.6
20260507081004 54 179 1.7 6.1 0.00 0.00 0.00 80 1015.6
20260507075504 53 147 1.7 5.2 0.00 0.00 0.00 81 1015.5
20260507075005 53 87 2.6 5.2 0.00 0.00 0.00 80 1015.5
20260507074005 52 87 2.6 6.1 0.00 0.00 0.00 80 1015.4
20260507073504 52 86 2.6 6.1 0.00 0.00 0.00 80 1015.4
20260507072504 52 133 2.6 5.2 0.00 0.00 0.00 80 1015.4
20260507070009 51 123 2.6 6.1 0.00 0.00 0.00 80 1015.3
20260507064505 50 135 1.7 5.2 0.00 0.00 0.00 82 1015.2
20260507064005 50 114 1.7 5.2 0.00 0.00 0.00 82 1015.2
20260507063505 49 131 0.9 2.6 0.00 0.00 0.00 83 1015.2
20260507062005 49 139 1.7 2.6 0.00 0.00 0.00 82 1015.4
20260507061504 48 146 1.7 2.6 0.00 0.00 0.00 82 1015.3
20260507061004 48 146 1.7 2.6 0.00 0.00 0.00 82 1015.3
20260507055504 48 123 0.9 4.3 0.00 0.00 0.00 82 1015.1
20260507052004 48 107 0.9 1.7 0.00 0.00 0.00 80 1014.8
20260507050505 48 117 1.7 2.6 0.00 0.00 0.00 80 1014.9
20260507050006 48 100 0.9 2.6 0.00 0.00 0.00 79 1014.8